CORVUS BC2

Last updated on Wed Sep 17 2025 00:03:49 GMT+0000 (Coordinated Universal Time)

1 42846U 17042X 25259.42577506 .00004490 00000+0 33208-3 0 9992 2 42846 97.3808 67.3497 0013483 330.6340 29.4127 15.03598334445880
UTC large
Height (km)
Speed (km/s)
/
Latitude / Longitude
Inclination (degrees)
Orbital Period (minutes)
Azimuth
Elevation
Range (km)
Doppler Factor

Next 0 passes for location: London (51.5072 / 0.1276)

Sorry there are no passes over London.